Tracking 25949 objects as of 9-Aug-2022
HD Live streaming from Space Station
objects crossing your sky now

IRIDIUM 148

Track IRIDIUM 148 now!
10-day predictions
IRIDIUM 148 is classified as:


NORAD ID: 43255
Int'l Code: 2018-030I
Perigee: 783.0 km
Apogee: 786.6 km
Inclination: 86.4 °
Period: 100.4 minutes
Semi major axis: 7155 km
RCS: Unknown
Launch date: March 30, 2018
Source: United States (US)
Launch site: AIR FORCE WESTERN TEST RANGE (AFWTR)
aabbcc
Your satellite tracking list
Your tracking list is empty




NASA's NSSDC Master Catalog

Two Line Element Set (TLE):
1 43255U 18030G   22220.37589011  .00000158  00000-0  49297-4 0  9992
2 43255  86.4025 159.2537 0002507  84.6748 275.4733 14.34218978228245
Source of the keplerian elements: AFSPC